Skip Page Navigation
NASA JPL Caltech
NASA Logo - Jet Propulsion Laboratory + View the NASA Portal
+ Center for Near-Earth Object Studies
JPL Home Earth Solar System Stars & Galaxies Technology
JPL Solar System Dynamics
BODIES ORBITS EPHEMERIDES TOOLS PHYSICAL DATA DISCOVERY FAQ SITE MAP
JPL Small-Body Database Browser
Search: [ help ]  
2930 Euripides (6554 P-L)
Classification: Main-belt Asteroid          SPK-ID: 2002930
Ephemeris | Orbit Diagram | Orbital Elements | Mission Design | Physical Parameters | Discovery Circumstances | Close-Approach Data ]

[ show orbit diagram ]
Orbital Elements at Epoch 2459000.5 (2020-May-31.0) TDB
Reference: JPL 33 (heliocentric ecliptic J2000)
 Element Value Uncertainty (1-sigma)   Units 
e .02201972446534885 3.4087e-08  
a 2.781113837152764 1.1363e-08 au
q 2.719874476751892 9.2934e-08 au
i 4.059146561581477 3.8272e-06 deg
node 359.1595469309706 5.3376e-05 deg
peri 101.5012363321427 0.00010578 deg
M 215.3727638231938 9.2e-05 deg
tp 2459681.072132228328
(2022-Apr-11.57213223)
0.00043368 TDB
period 1694.051370121456
4.64
1.0382e-05
2.842e-08
d
yr
n .21250831370845 1.3024e-09 deg/d
Q 2.842353197553637 1.1613e-08 au
  Orbit Determination Parameters
   # obs. used (total)      2057  
   data-arc span      23695 days (64.87 yr)  
   first obs. used      1955-07-24  
   last obs. used      2020-06-07  
   planetary ephem.      DE431  
   SB-pert. ephem.      SB431-N16  
   condition code      0  
   norm. resid. RMS      .48735  
   source      ORB  
   producer      Otto Matic  
   solution date      2020-Jun-23 15:51:22  

Additional Information
 Earth MOID = 1.74045 au 
 Jupiter MOID = 2.1699 au 
 T_jup = 3.329 
[ show covariance matrix ]

Ephemeris | Orbit Diagram | Orbital Elements | Mission Design | Physical Parameters | Discovery Circumstances | Close-Approach Data ]

Physical Parameter Table
Parameter Symbol Value Units Sigma Reference Notes
absolute magnitude H 13.0   n/a MPO263372  
diameter diameter 14.867 km 4.650 urn:nasa:pds:neowise_diameters_albedos::2.0[mainbelt] (http://adsabs.harvard.edu/abs/2016AJ....152...63N)  
geometric albedo albedo 0.050   0.075 urn:nasa:pds:neowise_diameters_albedos::2.0[mainbelt] (http://adsabs.harvard.edu/abs/2016AJ....152...63N)  
SMASSII spectral type spec_B C   n/a EAR-A-5-DDR-TAXONOMY-V4.0 based on a high-resolution spectrum by Xu et al. (1995) or Bus and Binzel (2002)

2930 Euripides (6554 P-L)          Discovered 1960-Sep-24 by PLS at Palomar
These planets have all been discovered as a result of the Palomar survey of faint minor planets and subsequently identified with planets observed at other oppositions. In Sept. and Oct. 1960, T. Gehrels exposed 130 plates with the 122 cm Schmidt camera at Palomar. In the following years C. J. van Houten and I. van Houten-Groeneveld measured these plates astrometrically and photometrically at Leiden. P. Herget, Cincinnati, computed the orbits of the planets found on the NORC computer, Dahlgren, Virginia, USA.
Note: "planet" implies "minor planet"
Reference: DISCOVERY.DBLast Updated: 2003-08-29

[ show close-approach data ]
Alternate Designations
 6554 P-L = 1979 UX = 1983 PO 
Ephemeris | Orbit Diagram | Orbital Elements | Mission Design | Physical Parameters | Discovery Circumstances | Close-Approach Data ]
ABOUT SSD CREDITS/AWARDS PRIVACY/COPYRIGHT GLOSSARY LINKS
FirstGov 2020-Aug-10 17:10 UT
(server date/time)  
NASA Home Page
Site Manager:   Ryan S. Park
Webmaster  Alan B. Chamberlin